カタログに戻る

STARLINK-34635

運用中通信VLEO
NORAD 64761·PAYLOAD·🇺🇸 United States

打ち上げ Jul 8, 2025 から Cape Canaveral Space Force Station

Loading…

次のパス (今後24時間)

TLE

最新Source: CelesTrak SupGP

元期: Sep 15, 2026, 02:59 UTC

1 64761C 25147G   26258.12479167 -.00022667  00000+0 -67023-3 0  2586
2 64761  53.1581  79.0698 0001397  88.3429  82.0107 15.34376800    18

AllMySatでSTARLINK-34635をリアルタイム追跡

Download on the App Store